FW8874 Weather Reports


time (UTC)temp
C
wind
direction
speed
KPH
gust
KPH
rain 1hr
cm
rain 24hr
cm
rain mn
cm
humidity
%
barometer
mb
20260507113057 13 287 0.0 3.2 0.00 0.00 0.00 55 1016.1
20260507111538 13 174 0.0 1.6 0.00 0.00 0.00 51 1016.0
20260507110032 13 21 0.0 8.0 0.00 0.00 0.00 54 1016.2
20260507104539 13 279 0.0 4.8 0.00 0.00 0.00 55 1016.2
20260507103031 14 232 0.0 3.2 0.00 0.00 0.00 55 1016.2
20260507101532 13 0 0.0 3.2 0.00 0.00 0.00 58 1016.3
20260507100030 12 218 0.0 4.8 0.00 0.00 0.00 61 1016.3
20260507094533 13 214 0.0 4.8 0.00 0.00 0.00 66 1016.3
20260507093034 12 146 3.2 6.4 0.00 0.00 0.00 65 1016.2
20260507091536 12 205 1.6 11.3 0.00 0.00 0.00 67 1016.3
20260507090032 12 120 1.6 8.0 0.00 0.00 0.00 71 1016.3
20260507084540 12 0 0.0 6.4 0.00 0.00 0.00 74 1016.3
20260507083030 11 0 1.6 4.8 0.00 0.00 0.00 76 1016.3
20260507081536 11 0 0.0 4.8 0.00 0.00 0.00 80 1016.4
20260507080030 10 115 0.0 6.4 0.00 0.00 0.00 83 1016.4
20260507074532 10 0 1.6 4.8 0.00 0.00 0.00 85 1016.2
20260507073034 9 0 0.0 4.8 0.00 0.00 0.00 87 1016.1
20260507071530 8 0 0.0 3.2 0.00 0.00 0.00 88 1016.2
20260507070030 8 0 0.0 3.2 0.00 0.00 0.00 90 1016.1
20260507064534 7 0 0.0 1.6 0.00 0.00 0.00 91 1016.1
20260507063029 7 0 0.0 4.8 0.00 0.00 0.00 92 1016.1
20260507061531 6 0 0.0 0.0 0.00 0.00 0.00 92 1016.0
20260507060033 5 0 0.0 0.0 0.00 0.00 0.00 92 1016.0
20260507054531 4 0 0.0 0.0 0.00 0.00 0.00 92 1016.0
20260507053031 3 0 0.0 0.0 0.00 0.00 0.00 93 1015.8
20260507051533 3 0 0.0 0.0 0.00 0.00 0.00 92 1015.8
20260507050031 2 0 0.0 0.0 0.00 0.00 0.00 93 1015.7
20260507044532 2 0 0.0 0.0 0.00 0.00 0.00 93 1015.6
20260507043038 2 0 0.0 0.0 0.00 0.00 0.00 94 1015.6
20260507041530 2 0 0.0 0.0 0.00 0.00 0.00 92 1015.6
20260507040032 2 0 0.0 0.0 0.00 0.00 0.00 92 1015.7
20260507034535 3 0 0.0 0.0 0.00 0.00 0.00 93 1015.7
20260507033034 3 0 0.0 0.0 0.00 0.00 0.00 93 1015.7
20260507031529 2 0 0.0 0.0 0.00 0.00 0.00 92 1015.7
20260507030030 2 0 0.0 0.0 0.00 0.00 0.00 90 1015.8
20260507024532 3 0 0.0 0.0 0.00 0.00 0.00 90 1015.5
20260507023030 3 0 0.0 0.0 0.00 0.00 0.00 91 1015.5
20260507021530 4 0 0.0 0.0 0.00 0.00 0.00 90 1015.5
20260507020045 4 0 0.0 0.0 0.00 0.00 0.00 90 1015.4
20260507014534 4 0 0.0 0.0 0.00 0.00 0.00 89 1015.4
20260507013029 5 0 0.0 0.0 0.00 0.00 0.00 89 1015.4
20260507011541 4 0 0.0 0.0 0.00 0.00 0.00 89 1015.4
20260507010034 5 0 0.0 0.0 0.00 0.00 0.00 88 1015.4
20260507004531 5 0 0.0 0.0 0.00 0.00 0.00 88 1015.4
20260507003030 5 0 0.0 0.0 0.00 0.00 0.00 87 1015.4
20260507001602 5 0 0.0 0.0 0.00 0.00 0.00 87 1015.4
20260507000040 4 0 0.0 0.0 0.00 0.00 0.00 84 1015.4
20260506234531 5 0 0.0 0.0 0.00 0.00 0.00 83 1015.4
20260506233030 6 0 0.0 0.0 0.00 0.00 0.00 83 1015.4
20260506231531 5 0 0.0 0.0 0.00 0.00 0.00 82 1015.2
20260506230049 6 0 0.0 0.0 0.00 0.00 0.00 81 1015.3
20260506224530 6 0 0.0 0.0 0.00 0.00 0.00 79 1015.2
20260506223032 7 0 0.0 0.0 0.00 0.00 0.00 77 1015.1
20260506221530 7 0 0.0 0.0 0.00 0.00 0.00 76 1015.1
20260506220035 7 0 0.0 1.6 0.00 0.00 0.00 76 1014.9
20260506214529 7 0 0.0 0.0 0.00 0.00 0.00 75 1014.9
20260506213033 8 0 0.0 1.6 0.00 0.00 0.00 73 1015.0
20260506211530 8 0 0.0 3.2 0.00 0.00 0.00 72 1015.0
20260506210047 8 0 0.0 3.2 0.00 0.00 0.00 71 1014.8
20260506204530 9 30 0.0 3.2 0.00 0.00 0.00 70 1014.7
20260506203031 10 21 0.0 3.2 0.00 0.00 0.00 70 1014.7
20260506201530 10 0 0.0 3.2 0.00 0.00 0.00 70 1014.6
20260506200034 10 78 0.0 3.2 0.00 0.00 0.00 69 1014.4
20260506194532 10 0 0.0 3.2 0.00 0.00 0.00 68 1014.4
20260506193036 10 0 0.0 4.8 0.00 0.00 0.00 67 1014.1
20260506191530 10 52 0.0 8.0 0.00 0.00 0.00 67 1014.1
20260506190033 11 324 0.0 6.4 0.00 0.00 0.00 67 1014.1
20260506184537 11 322 0.0 4.8 0.00 0.00 0.00 68 1014.0
20260506183030 11 318 1.6 6.4 0.00 0.00 0.00 67 1013.9
20260506181539 11 23 1.6 6.4 0.00 0.00 0.00 66 1013.8
20260506180030 11 326 1.6 8.0 0.00 0.00 0.00 64 1013.5
20260506174535 12 25 1.6 9.7 0.00 0.00 0.00 63 1013.3
20260506173032 11 300 0.0 4.8 0.00 0.00 0.00 64 1013.3
20260506171535 11 309 0.0 8.0 0.00 0.00 0.00 65 1013.3
20260506170037 11 345 1.6 8.0 0.00 0.00 0.00 64 1013.3
20260506164546 12 32 4.8 11.3 0.00 0.00 0.00 62 1013.1
20260506163035 12 50 4.8 11.3 0.00 0.00 0.00 63 1013.0
20260506161530 12 65 4.8 11.3 0.00 0.00 0.00 61 1012.9
20260506160034 12 66 1.6 8.0 0.00 0.00 0.00 62 1013.0
20260506154533 12 347 3.2 9.7 0.00 0.00 0.00 62 1013.0
20260506153032 12 302 3.2 12.9 0.00 0.00 0.00 60 1013.0
20260506151533 12 282 4.8 14.5 0.00 0.00 0.00 57 1013.1
20260506150030 12 38 6.4 17.7 0.00 0.00 0.00 58 1013.1
20260506144530 13 58 4.8 17.7 0.00 0.00 0.00 58 1013.2
20260506143037 12 316 3.2 12.9 0.00 0.00 0.00 58 1013.3
20260506141540 13 62 3.2 19.3 0.00 0.00 0.00 56 1013.1
20260506140034 12 302 6.4 12.9 0.00 0.00 0.00 57 1013.2
20260506134530 12 319 4.8 19.3 0.00 0.00 0.00 57 1013.4
20260506133030 13 51 8.0 20.9 0.00 0.00 0.00 54 1013.2
20260506131529 12 42 4.8 16.1 0.00 0.00 0.00 56 1013.2
20260506130030 13 356 3.2 14.5 0.00 0.00 0.00 58 1013.4
20260506124529 12 70 6.4 14.5 0.00 0.00 0.00 57 1013.5
20260506123030 13 349 3.2 16.1 0.00 0.00 0.00 58 1013.5
20260506121530 12 15 4.8 14.5 0.00 0.00 0.00 57 1013.4
20260506120049 12 39 6.4 17.7 0.00 0.00 0.00 63 1013.5
20260506114534 12 302 4.8 17.7 0.00 0.00 0.00 63 1013.4